Ithaca, NY

7:23 PM EDT on April 28, 2017 (GMT -0400)
Tompkins County

Weather History for KITH - November, 2010

Change the Weather History Date:

Monday, November 22, 2010

  Actual Average Record
Temperature  
Mean Temperature 46 °F -  
Max Temperature 52 °F 39 °F 69 °F (1996)
Min Temperature 41 °F 27 °F 9 °F (1987)
Degree Days  
Heating Degree Days 18    
Moisture  
Dew Point 42 °F    
Average Humidity 80    
Maximum Humidity 89    
Minimum Humidity 68    
Precipitation  
Precipitation 0.00 in - - ()
Sea Level Pressure  
Sea Level Pressure 30.14 in    
Wind  
Wind Speed 14 mph (South)    
Max Wind Speed 23 mph    
Max Gust Speed 29 mph    
Visibility 10 miles    
Events Rain    
Averages and records for this station are not official NWS values.
T = Trace of Precipitation, MM = Missing Value Source: NWS Daily Summary

Daily Weather History Graph

Daily Weather History Graph

Search for Another Location

Airport or City:

Trip Planner

Search our weather history database for the weather conditions in past years. The results will help you decide how hot, cold, wet, or windy it might be!

Date:

Astronomy

Nov. 22, 2010 Rise Set
Actual Time 7:05 AM EST 4:38 PM EST
Civil Twilight 6:34 AM EST 5:08 PM EST
Nautical Twilight 6:00 AM EST 5:43 PM EST
Astronomical Twilight 5:26 AM EST 6:16 PM EST
Moon 5:15 PM EST (11/22) 8:07 AM EST (11/22)
Length of Visible Light 10h 34m
Length of Day
9h 32m
Full, 99% of the Moon is Illuminated
Nov 22
Full
Nov 28
Last Quarter
Dec 5
New
Dec 13
First Quarter
Dec 21
Full

Hourly Weather History & Observations

Time (EST) Temp. Windchill Dew Point Humidity Pressure Visibility Wind Dir Wind Speed Gust Speed Precip Events Conditions
12:56 AM 41.0 °F 32.5 °F 31.1 °F 68% 30.29 in 10.0 mi South 17.3 mph 23.0 mph N/A   Overcast
1:56 AM 41.0 °F 32.5 °F 32.0 °F 70% 30.27 in 10.0 mi South 17.3 mph - N/A   Overcast
2:56 AM 41.9 °F 32.8 °F 34.0 °F 73% 30.25 in 10.0 mi South 20.7 mph 27.6 mph N/A   Partly Cloudy
3:56 AM 41.9 °F 32.3 °F 36.0 °F 79% 30.23 in 10.0 mi South 23.0 mph 28.8 mph N/A   Overcast
4:56 AM 43.0 °F 36.0 °F 36.9 °F 79% 30.23 in 10.0 mi South 13.8 mph 25.3 mph N/A   Overcast
5:56 AM 43.9 °F 37.2 °F 37.9 °F 80% 30.22 in 10.0 mi South 13.8 mph - N/A   Overcast
6:14 AM 44.6 °F 38.1 °F 37.4 °F 76% 30.20 in 10.0 mi South 13.8 mph 17.3 mph N/A   Overcast
6:56 AM 45.0 °F 38.9 °F 38.8 °F 79% 30.21 in 10.0 mi South 12.7 mph - N/A   Overcast
7:56 AM 45.9 °F 39.4 °F 39.9 °F 80% 30.20 in 10.0 mi South 15.0 mph - N/A   Mostly Cloudy
8:56 AM 46.9 °F - 41.0 °F 80% 30.19 in 10.0 mi South 12.7 mph - N/A   Mostly Cloudy
9:56 AM 47.8 °F - 41.9 °F 80% 30.18 in 10.0 mi South 15.0 mph - N/A   Overcast
10:56 AM 50.0 °F - 41.9 °F 74% 30.16 in 10.0 mi South 12.7 mph 18.4 mph N/A   Mostly Cloudy
11:56 AM 50.9 °F - 43.0 °F 74% 30.13 in 10.0 mi South 16.1 mph - N/A   Mostly Cloudy
12:56 PM 50.0 °F - 43.9 °F 79% 30.12 in 6.0 mi South 10.4 mph - 0.00 in Rain Light Rain
1:56 PM 48.9 °F - 45.0 °F 86% 30.10 in 10.0 mi SSE 10.4 mph - 0.00 in Rain Light Rain
2:56 PM 50.0 °F - 45.9 °F 86% 30.09 in 7.0 mi South 8.1 mph - 0.00 in Rain Light Rain Showers
3:56 PM 48.9 °F - 45.9 °F 89% 30.09 in 10.0 mi SSE 8.1 mph - 0.00 in Rain Light Rain Showers
4:56 PM 50.0 °F - 45.9 °F 86% 30.08 in 10.0 mi South 9.2 mph - 0.00 in Rain Light Rain
5:56 PM 50.9 °F - 45.9 °F 83% 30.08 in 10.0 mi South 9.2 mph - 0.00 in Rain Light Rain
6:56 PM 50.9 °F - 45.9 °F 83% 30.07 in 10.0 mi South 9.2 mph - 0.00 in Rain Light Rain
7:56 PM 50.0 °F - 46.9 °F 89% 30.06 in 7.0 mi SSE 8.1 mph - 0.00 in Rain Light Rain
8:56 PM 50.9 °F - 45.9 °F 83% 30.04 in 10.0 mi SSE 10.4 mph - 0.00 in   Overcast
9:56 PM 52.0 °F - 45.9 °F 80% 30.03 in 10.0 mi SSE 9.2 mph - N/A   Overcast
10:56 PM 52.0 °F - 45.9 °F 80% 30.01 in 10.0 mi SSE 9.2 mph - N/A   Overcast
11:56 PM 52.0 °F - 45.0 °F 77% 30.00 in 10.0 mi South 9.2 mph - N/A   Scattered Clouds